Location: Arborea
(39.7744°N, 8.5819°E)
Time: 23:38:25
(UTC+00:00)

Cosmos 2227 - Pass Details

Date: 24 October 2021
Orbit: 833 x 863 km, 71.0° (Epoch: 27 November)

Event Time Altitude Azimuth Distance (km) Brightness Sun altitude
Rises 17:01:15 0° 339° (NNW) 3,449 7.5 -6.0°
Reaches altitude 10° 17:03:46 10° 343° (NNW) 2,509 6.8 -6.5°
Maximum altitude 17:09:29 62° 64° (ENE) 963 4.3 -7.6°
Drops below altitude 10° 17:15:09 10° 145° (SE) 2,486 6.4 -8.7°
Sets 17:17:37 0° 149° (SSE) 3,415 7.1 -9.1°
